Weather in Palanga

Lithuania     55°54′18″N   21°04′38″E
temp.,
°C
wind,
m/s
gust,
m/s
humid.,
%
clouds,
%
prec.,
mm/h
press.,
hPa
HPBL,
m
28 july, wed
wed2800:00+20sw34854 0.0 1010208
03:00+21sw5789100 0.0 1010326
06:00+20wsw469053 0.3 1010280
09:00+22wsw347699 1.4 1010202
12:00+22wsw4569100 0.1 1010391
15:00+23sw4669100 0.1 1010421
18:00+22sw34705 0.0 1009330
21:00+22sw567684 0.1 1009183
29 july, thu
thu2900:00+20wsw5684100 0.3 1008389
03:00+20wsw458414 0.4 1008490
06:00+20wsw67800 0.0 1008518
09:00+21sw68751 0.0 1007685
12:00+22sw79710 0.4 1007859
15:00+20wsw8107738 1.0 1007917
18:00+20wsw7117170 0.6 1007943
21:00+20wsw9126849 1.2 10071264
30 july, fri
fri3000:00+20wsw914605 0.1 10071557
03:00+20wsw1113605 0.4 10061650
06:00+19wsw1113664 0.5 10051427
09:00+19wsw12147186 1.4 10041474
12:00+19wsw13156529 1.8 10041649
15:00+19wsw131665100 2.0 10041774
18:00+20wsw13176895 0.6 10031551
21:00+20wsw14177616 0.7 10021372
31 july, sat
sat3100:00+20wsw131680100 0.2 10021077
03:00+20wsw1113831 0.8 1003977
06:00+20w8107634 0.3 1003859
09:00+20sw786720 0.3 10031079
12:00+21ssw786698 0.0 1003721
15:00+21sw71066100 0.0 1002903
18:00+19wsw910743 0.7 1002890
21:00+19wsw1316725 0.9 10021413
1 august, sun
sun100:00+19wsw121577100 0.8 10021257
03:00+19wsw111480100 1.9 10021242
06:00+19w9127290 2.9 10021264
09:00+19w10127163 3.1 10041460
12:00+19w9116799 0.3 10051485
15:00+20w8106370 0.4 10071421
18:00+19wsw686726 0.1 10071191
21:00+19wsw467012 0.1 1006801